Current weather by "City, St" or "zip code"  
 
Advertise Here

Current Conditions: ST FRANCIS, KS

Partly Cloudy


62.0 F

Last Updated on May 30 2020, 3:55 am CDT
Humidity: 68%
Wind Speed: E 5.8 mph
Barometer 30.13 in
Dewpoint: 51.1 F
Visibility: 10.00 mi
Precip: --
Heat Index: NA
Wind Chill: 62 F
Current conditions at:

ST FRANCIS, KS (KSYF)

Lat: 39.763884 Lon: 101.797861

Local Radar Image active severe weather and emergency alerts image image weather storm and storm spotter reports image weather observation monitoring service image
Local
Radar
Active
Alerts
Storm Reports Obs
Monitoring

Sign-up For Email & Text Message Weather Alert Notification Services


Advertise Here

Observation History for ST FRANCIS, KS


Time Wind
(mph)
Vis
(mi)
Weather Precip (in) Temperature (F) Relative
Humidity
Wind
Chill
(F)
Heat
Index
(F)
Pressure
Air Dwpt altimeter
(in)
sea level
(mb)
Rmks
3:55 am CDT E 5.8 10.00 Partly Cloudy -- 62.0 51.1 68% 62 NA 30.13 M
2:55 am CDT S 9.2 G 16.1 10.00 Partly Cloudy -- 62.0 50.7 67% 61 NA 30.09 M
1:55 am CDT SE 24.2 G 31.1 10.00 Partly Cloudy and Breezy -- 65.0 50.9 61% NA NA 30.08 M
12:55 am CDT SE 19.6 G 26.5 10.00 Fair -- 66.0 51.1 58% NA NA 30.10 M
11:55 pm CDT SE 24.2 G 29.9 10.00 Fair and Breezy -- 68.0 52.0 57% NA NA 30.12 M
10:55 pm CDT SE 21.9 G 28.8 10.00 Fair and Breezy -- 68.0 52.2 56% NA NA 30.13 M
9:55 pm CDT SE 20.7 G 27.6 10.00 Fair and Breezy -- 70.0 52.2 53% NA NA 30.11 M
8:55 pm CDT SE 19.6 G 25.3 10.00 Fair -- 74.0 51.8 46% NA NA 30.10 M
7:55 pm CDT SE 21.9 G 26.5 10.00 Fair and Breezy -- 81.0 49.8 34% NA 80 30.08 M
6:55 pm CDT SE 19.6 G 27.6 10.00 Fair -- 84.0 49.5 31% NA 82 30.08 M
5:55 pm CDT SE 18.4 G 25.3 10.00 Fair -- 85.0 50.4 31% NA 83 30.09 M
4:55 pm CDT SE 21.9 G 26.5 10.00 Fair and Breezy -- 85.0 50.7 31% NA 83 30.10 M
3:55 pm CDT SE 17.3 G 25.3 10.00 Fair -- 84.0 51.1 32% NA 82 30.12 M
2:55 pm CDT SE 18.4 G 25.3 10.00 Fair -- 82.0 50.7 34% NA 81 30.14 M
1:55 pm CDT SE 17.3 G 23.0 10.00 Fair -- 80.0 50.4 36% NA 80 30.17 M
12:55 pm CDT S 18.4 G 24.2 10.00 Fair -- 76.0 48.6 37% NA NA 30.19 M
11:55 am CDT SE 15.0 G 23.0 10.00 Fair -- 74.0 47.5 38% NA NA 30.21 M
10:55 am CDT SE 16.1 G 24.2 10.00 Fair -- 70.0 44.6 40% NA NA 30.23 M
10:00 am CDT SE 16.1 10.00 Fair -- 67.0 43.7 43% NA NA 30.25 M
8:55 am CDT SE 17.3 10.00 Partly Cloudy -- 62.0 40.3 45% 60 NA 30.26 M
7:55 am CDT SE 10.4 10.00 Partly Cloudy -- 55.0 45.3 70% 52 NA 30.26 M
6:55 am CDT SE 11.5 10.00 Mostly Cloudy -- 53.0 45.5 76% 49 NA 30.26 M
5:55 am CDT SE 10.4 10.00 Fair -- 51.0 46.0 82% 47 NA 30.25 M
4:55 am CDT SE 8.1 10.00 Fair -- 52.0 46.4 82% 49 NA 30.26 M

Regional Weather Observation


Wray Municipal Airport, CO (K2V5)

Fair
63.0 F

Goodland, Renner Field, KS (KGLD)

Fair
60.0 F

Imperial, Imperial Municipal Airport, NE (KIML)

Light Rain
58.0 F

Holyoke Airport, CO (KHEQ)

Fair
63.0 F

Burlington - Carson County Airport, CO (KITR)

Fair
61.0 F

Colby Shaltz Field Airport, KS (KCBK)

Fair
59.0 F